Погода в Верхней Матренке

Россия / Липецкая область     52°03′16″N   40°10′58″E
темп.,
°C
ветер,
м/с
пор.,
м/с
влажн.,
%
обл.,
%
осадки,
мм/ч
давл.,
гПа
погр.,
м
15 июня, вт
вт1500:00+17всв229141 0.0 101415
03:00+16св2292100 0.0 101314
06:00+18св239173 0.0 1013119
09:00+22ссв3378100 0.2 1013500
12:00+25св346359 0.7 10121362
15:00+24ссв3468100 2.1 10111113
18:00+23св347629 0.4 1009674
21:00+18св228860 1.3 101011
16 июня, ср
ср1600:00+17с119299 0.4 100911
03:00+16сз229327 0.4 100913
06:00+18сз249319 0.0 1010137
09:00+22ссз347898 0.0 1010549
12:00+24сз346997 1.6 10111081
15:00+25сз456676 1.9 10111230
18:00+23ссз367893 1.6 1012293
21:00+19с35925 1.8 101478
17 июня, чт
чт1700:00+18с49960 0.0 1015180
03:00+17ссв512950 0.0 1016306
06:00+17ссв511940 0.0 1018396
09:00+21св68760 0.0 1019694
12:00+23св77653 0.0 10201323
15:00+23св67586 0.0 10201621
18:00+20св69710 0.0 1022652
21:00+16св411770 0.0 1023222
18 июня, пт
пт1800:00+13св49790 0.0 1024160
03:00+12св49834 0.0 1025170
06:00+14св410810 0.0 1026253
09:00+19всв57650 0.0 1026585
12:00+22всв67545 0.0 10271525
15:00+22всв675227 0.0 10261704
18:00+21всв47660 0.0 1027560
21:00+16всв35790 0.0 102773
19 июня, сб
сб1900:00+14в34830 0.0 102858
03:00+13в34870 0.0 102959
06:00+15вюв24860 0.0 1029125
09:00+20юв34670 0.0 1029579
12:00+22вюв34570 0.0 10281307
15:00+24вюв44530 0.0 10271396
18:00+22вюв34640 0.0 1026443
21:00+17вюв22750 0.0 102715